Location: Cucq
(50.4773°N, 1.6202°E)
Time: 23:55:20
(UTC+00:00)

COSMOS 2428 - Pass Details

Date: 07 August 2020
Orbit: 844 x 859 km, 70.9° (Epoch: 23 September)

Event Time Altitude Azimuth Distance (km) Brightness Sun altitude
Rises 00:19:27 0° 329° (NNW) 3,433 6.7 -23.0°
Reaches altitude 10° 00:21:54 10° 328° (NNW) 2,496 5.8 -23.0°
Maximum altitude 00:27:38 79° 244° (WSW) 879 2.6 -22.9°
Enters shadow 00:29:10 51° 168° (SSE) 1,074 2.8 -22.9°
